Location: Crni Vrh Observatory
(45.9460°N, 14.0712°E)
Time: 21:20:01
(UTC+02:00)

OTV 5 (USA 277) - Visible Passes

Search period start: 18 June 2018 00:00
Search period end: 28 June 2018 00:00
Orbit: 313 x 320 km, 54.5° (Epoch: 18 June)

Date Brightness Start Highest point End Pass type
(mag) Time Alt. Az. Time Alt. Az. Time Alt. Az.
18 Jun ? 00:17:09 10° NW 00:18:50 15° N 00:20:31 10° NNE visible
18 Jun ? 01:52:07 10° NNW 01:53:57 16° NNE 01:55:47 10° NE visible
18 Jun ? 03:26:01 10° NW 03:28:42 57° NNE 03:31:23 10° ESE visible
18 Jun ? 22:56:20 10° WNW 22:58:36 23° NNW 23:00:52 10° NE visible
19 Jun ? 00:32:08 10° NW 00:33:37 14° N 00:35:07 10° NNE visible
19 Jun ? 02:06:25 10° NW 02:08:40 22° NNE 02:10:55 10° ENE visible
19 Jun ? 03:40:29 10° WNW 03:43:10 55° SW 03:45:49 10° SE visible
19 Jun ? 21:35:55 10° WSW 21:38:34 63° NNW 21:41:16 10° NE visible
19 Jun ? 23:11:27 10° WNW 23:13:19 17° NNW 23:15:11 10° NNE visible
20 Jun ? 00:46:46 10° NNW 00:48:25 15° N 00:50:04 10° NE visible
20 Jun ? 02:20:43 10° NW 02:23:18 38° NNE 02:25:53 10° E visible
20 Jun ? 03:55:18 10° W 03:57:28 21° SW 03:59:38 10° S visible
20 Jun ? 21:50:41 10° W 21:53:09 30° NNW 21:55:36 10° NE visible
20 Jun ? 23:26:32 10° NW 23:28:05 14° N 23:29:38 10° NNE visible
21 Jun ? 01:01:09 10° NNW 01:03:11 19° NNE 01:05:12 10° ENE visible
21 Jun ? 02:35:05 10° NW 02:37:41 81° NW 02:37:41 81° NW visible
21 Jun ? 22:05:44 10° WNW 22:07:48 19° NNW 22:09:53 10° NNE visible
21 Jun ? 23:41:21 10° NNW 23:42:53 14° N 23:44:25 10° NE visible
22 Jun ? 01:15:26 10° NW 01:17:52 28° NNE 01:18:52 22° ENE visible
22 Jun ? 22:20:52 10° NW 22:22:33 15° N 22:24:14 10° NNE visible
22 Jun ? 23:55:51 10° NNW 23:57:40 16° NNE 23:59:29 10° NE visible
23 Jun ? 01:29:45 10° NW 01:31:35 35° NNW 01:31:35 35° NNW visible
23 Jun ? 22:35:52 10° NW 22:37:20 14° N 22:38:50 10° NNE visible
24 Jun ? 00:10:10 10° NW 00:12:23 22° NNE 00:13:48 15° ENE visible
24 Jun ? 01:44:13 10° WNW 01:44:38 13° WNW 01:44:38 13° WNW visible
24 Jun ? 22:50:30 10° NNW 22:52:08 15° N 22:53:46 10° NE visible
25 Jun ? 00:24:27 10° NW 00:27:01 37° NNE 00:27:01 37° NNE visible
25 Jun ? 23:04:53 10° NNW 23:06:54 18° NNE 23:08:54 10° ENE visible
26 Jun ? 00:38:49 10° NW 00:40:21 30° NW 00:40:21 30° NW visible
26 Jun ? 21:45:05 10° NNW 21:46:36 14° N 21:48:07 10° NE visible
26 Jun ? 23:19:10 10° NW 23:21:35 28° NNE 23:22:55 18° ENE visible
27 Jun ? 00:53:24 10° WNW 00:53:46 13° WNW 00:53:46 13° WNW visible
27 Jun ? 21:59:35 10° NNW 22:01:23 16° NNE 22:03:11 10° NE visible
27 Jun ? 23:33:29 10° NW 23:36:09 55° NNE 23:36:23 52° ENE visible
